Regional Weather Roundup
Issued by NWS Jackson, KY

Home | Current Version | Previous Version | Graphics & Text | Print | Product List | Glossary On
Versions: 1 2 3 4 5 6 7 8 9 10 11 12 13 14 15 16 17 18 19 20 21 22 23 24 25 26 27 28 29 30 31 32 33 34 35 36 37 38 39 40 41 42 43 44 45 46 47 48 49 50
000
ASUS43 KJKL 310219
RWRJKL

EAST KENTUCKY HOURLY WEATHER ROUNDUP
NATIONAL WEATHER SERVICE JACKSON KY
1000 PM EDT WED JUL 30 2014

NOTE: "FAIR" INDICATES FEW OR NO CLOUDS BELOW 12,000 FEET WITH
NO SIGNIFICANT WEATHER AND/OR OBSTRUCTIONS TO VISIBILITY.

* THESE REPORTS ARE NOT UNDER NWS QUALITY CONTROL AND MAY NOT
  REPORT WEATHER SUCH AS PRECIPITATION AND FOG.

KYZ079-080-083-085-087-088-110-112-115-119-120-310300
...EASTERN KENTUCKY...

CITY           SKY/WX    TMP DP  RH WIND       PRES   REMARKS
JACKSON        CLEAR     69  57  65 CALM      30.11R
LONDON         PTCLDY    67  61  81 CALM      30.11R
SOMERSET*      CLEAR     64  61  88 SE3       30.11R
MONTICELLO*    MOCLDY    64  62  93 CALM      30.12R
WILLIAMSBURG*    N/A     64  64 100 CALM      30.11
MIDDLESBORO*   MOCLDY    65  60  85 W3        30.12R
HARLAN APT*    CLEAR     63  61  94 MISG      30.13R
BLACK MTN*       N/A     57  54  88 N3          N/A
PIKEVILLE APT* CLEAR     70  57  64 CALM      30.11R
BIG SANDY*     PTCLDY    64  61  89 NE8       30.11R
MOREHEAD APT*  CLOUDY    68  59  73 VRB6      30.12R
ASHLAND*       PTCLDY    63  57  82 SE7       30.08S
$$

KYZ035-036-041-042-044-050-067-078-099-310300
...CENTRAL KENTUCKY...

CITY           SKY/WX    TMP DP  RH WIND       PRES   REMARKS
MT STERLING*   CLEAR     63  61  94 W3        30.10R
FLEMING/MASON* PTCLDY    63  59  88 E5        30.10R
DANVILLE*      PTCLDY    64  61  88 CALM      30.10R
RICHMOND*      PTCLDY    68  57  68 CALM      30.09R
LEXINGTON      CLEAR     71  56  58 CALM      30.09R
FRANKFORT      CLEAR     67  60  78 CALM      30.06R
$$

KYZ091>093-OHZ055-061-077-WVZ005-015-034-035-042-310300
...SOUTHERN OHIO/WEST VIRGINIA...

CITY           SKY/WX    TMP DP  RH WIND       PRES   REMARKS
COVINGTON      CLOUDY    70  59  68 CALM      30.07R
COLUMBUS       PTCLDY    68  59  73 S6        30.04R
DAYTON         PTCLDY    66  59  78 W8        30.05S
WILMINGTON     CLOUDY    63  60  90 S3        30.06S
HUNTINGTON     MOCLDY    62  61  96 NE6       30.11R
CHARLESTON     LGT RAIN  63  62  97 W5        30.11R
PINEVILLE*     CLEAR     62  61  98 MISG      30.18R
BECKLEY        PTCLDY    60  54  80 CALM      30.16R
BLUEFIELD      CLEAR     64  52  64 CALM      30.18R
$$

VAZ002-007-008-TNZ017-027-036-066-071-310300
...SOUTHWEST VIRGINIA/EAST TENNESSEE...

CITY           SKY/WX    TMP DP  RH WIND       PRES   REMARKS
WISE*          CLEAR     61  57  88 CALM      30.18R
JONESVILLE*      N/A     63  61  94 CALM      30.14R
ABINGDON*      CLEAR     64  58  83 CALM      30.14R
BRISTOL        MOCLDY    63  56  78 N3        30.12R
KNOXVILLE      CLOUDY    67  60  78 NE3       30.09R
OAK RIDGE      MOCLDY    67  61  81 CALM      30.11R
CROSSVILLE     MOCLDY    66  60  81 CALM      30.13S
NASHVILLE      MOCLDY    72  56  57 CALM      30.08R
$$

...KEY TO REMARKS...
VSB - VISIBILITY IN MILES
WCI - WIND CHILL INDEX
HX  - HEAT INDEX

$$


USA.gov is the U.S. government's official web portal to all federal, state and local government web resources and services.